This is the latest recevied weather packets stored in our database for station/object EA6MW-10. If no packets are shown the sender has not sent any weather packets the latest 10 day(s).
| Time | Temp. | Humidity | Pressure | Rain* | Wind** | Luminosity | Snow |
|---|---|---|---|---|---|---|---|
| 1777685858 | 16.67° C | 67% | 1023 hPa | - | - | - | - |
| 1777684957 | 16.67° C | 68% | 1022.9 hPa | - | - | - | - |
| 1777684056 | 17.22° C | 67% | 1022.9 hPa | - | - | - | - |
| 1777683156 | 17.78° C | 63% | 1023 hPa | - | - | - | - |
| 1777682256 | 17.78° C | 62% | 1023.1 hPa | - | - | - | - |
| 1777681355 | 17.78° C | 63% | 1023.5 hPa | - | - | - | - |
| 1777680455 | 17.78° C | 62% | 1023.6 hPa | - | - | - | - |
| 1777679555 | 17.22° C | 65% | 1023.9 hPa | - | - | - | - |
| 1777678655 | 17.22° C | 64% | 1024 hPa | - | - | - | - |
| 1777677755 | 17.78° C | 60% | 1024 hPa | - | - | - | - |
| 1777676854 | 17.78° C | 61% | 1024.1 hPa | - | - | - | - |
| 1777675954 | 17.78° C | 60% | 1024.1 hPa | - | - | - | - |
| 1777675054 | 18.33° C | 63% | 1024.1 hPa | - | - | - | - |
| 1777674155 | 17.78° C | 64% | 1024.1 hPa | - | - | - | - |
| 1777673254 | 17.78° C | 66% | 1024.1 hPa | - | - | - | - |
| 1777672354 | 17.78° C | 67% | 1023.9 hPa | - | - | - | - |
| 1777671453 | 17.78° C | 68% | 1023.8 hPa | - | - | - | - |
| 1777670553 | 17.22° C | 69% | 1023.7 hPa | - | - | - | - |
| 1777669653 | 17.22° C | 69% | 1023.7 hPa | - | - | - | - |
| 1777668753 | 17.22° C | 69% | 1023.5 hPa | - | - | - | - |
| 1777667852 | 17.78° C | 68% | 1023.5 hPa | - | - | - | - |
| 1777666952 | 17.78° C | 69% | 1023.4 hPa | - | - | - | - |
| 1777666052 | 17.78° C | 69% | 1023.2 hPa | - | - | - | - |
| 1777665151 | 18.33° C | 68% | 1023.2 hPa | - | - | - | - |
| 1777664251 | 18.89° C | 68% | 1023 hPa | - | - | - | - |
* Rain since midnight (hover to see other rain measurements)
** Current wind speed in m/s (hover to see current wind gust speed)